WWW51 KLAS-KDEN

Flight info

Callsign WWW51
Flight time 1h 28m
Altitude 39000
Route GIDGT3 TUKRR DCT BUMMP SSKII4
Aircraft B736/M-SDE2E3FGHIRWXY/LB1

Departure

Time 2026-05-07 19:01
Airport Harry Reid International Airport (KLAS)

Arrival

Time 2026-05-07 20:30
Airport Denver International Airport (KDEN)
Time Latitude Longitude Altitude Speed Heading
2026-05-07 18:41 36.08292 -115.13476 2097 ft 0 kts 265°
2026-05-07 18:52 36.08294 -115.13454 2097 ft 3 kts 265°
2026-05-07 18:52 36.08295 -115.13431 2097 ft 2 kts 270°
2026-05-07 18:52 36.08304 -115.13412 2096 ft 3 kts 182°
2026-05-07 18:52 36.08307 -115.13411 2096 ft 0 kts 173°
2026-05-07 18:56 36.08275 -115.13385 2098 ft 9 kts 151°
2026-05-07 18:56 36.08211 -115.13376 2103 ft 9 kts 179°
2026-05-07 18:56 36.08148 -115.13375 2107 ft 9 kts 180°
2026-05-07 18:56 36.08087 -115.13375 2111 ft 9 kts 179°
2026-05-07 18:57 36.08027 -115.13376 2114 ft 8 kts 181°
2026-05-07 18:57 36.07969 -115.13376 2117 ft 8 kts 180°
2026-05-07 18:57 36.07913 -115.13376 2121 ft 8 kts 180°
2026-05-07 18:57 36.07860 -115.13375 2127 ft 8 kts 173°
2026-05-07 18:58 36.07828 -115.13330 2125 ft 7 kts 98°
2026-05-07 18:58 36.07828 -115.13254 2122 ft 11 kts 89°
2026-05-07 18:58 36.07828 -115.13155 2120 ft 12 kts 90°
2026-05-07 18:58 36.07828 -115.13056 2119 ft 11 kts 90°
2026-05-07 18:59 36.07828 -115.12960 2119 ft 11 kts 90°
2026-05-07 18:59 36.07828 -115.12866 2118 ft 11 kts 90°
2026-05-07 18:59 36.07828 -115.12773 2115 ft 11 kts 90°
2026-05-07 18:59 36.07827 -115.12675 2114 ft 11 kts 102°
2026-05-07 19:00 36.07771 -115.12628 2118 ft 10 kts 155°
2026-05-07 19:00 36.07706 -115.12600 2120 ft 10 kts 180°
2026-05-07 19:00 36.07648 -115.12626 2124 ft 9 kts 237°
2026-05-07 19:00 36.07642 -115.12663 2123 ft 0 kts 268°
2026-05-07 19:01 36.07642 -115.12685 2123 ft 21 kts 268°
2026-05-07 19:01 36.07641 -115.13249 2124 ft 107 kts 270°
2026-05-07 19:01 36.07646 -115.14475 2193 ft 169 kts 271°
2026-05-07 19:01 36.07652 -115.15947 3061 ft 168 kts 268°
2026-05-07 19:02 36.07562 -115.17364 3961 ft 169 kts 266°
2026-05-07 19:02 36.07553 -115.18908 4473 ft 196 kts 272°
2026-05-07 19:02 36.07590 -115.20747 4821 ft 225 kts 271°
2026-05-07 19:02 36.07612 -115.22708 5565 ft 230 kts 271°
2026-05-07 19:03 36.07623 -115.24683 6402 ft 230 kts 271°
2026-05-07 19:03 36.07821 -115.26642 7134 ft 232 kts 293°
2026-05-07 19:03 36.08796 -115.28205 7673 ft 240 kts 325°
2026-05-07 19:03 36.10377 -115.29020 8162 ft 252 kts 345°
2026-05-07 19:04 36.12095 -115.29518 8876 ft 255 kts 347°
2026-05-07 19:04 36.13867 -115.29670 9613 ft 259 kts
2026-05-07 19:04 36.15523 -115.28808 10343 ft 262 kts 33°
2026-05-07 19:04 36.16769 -115.27137 10994 ft 269 kts 56°
2026-05-07 19:05 36.17660 -115.25091 11645 ft 273 kts 64°
2026-05-07 19:05 36.18358 -115.22889 12296 ft 275 kts 67°
2026-05-07 19:05 36.19023 -115.20688 12945 ft 277 kts 67°
2026-05-07 19:05 36.19623 -115.18406 13546 ft 283 kts 79°
2026-05-07 19:06 36.19724 -115.15913 13920 ft 301 kts 88°
2026-05-07 19:06 36.19690 -115.10246 14246 ft 354 kts 89°
2026-05-07 19:06 36.19665 -115.07102 14529 ft 373 kts 89°
2026-05-07 19:07 36.19645 -115.03855 15140 ft 380 kts 88°
2026-05-07 19:07 36.19632 -115.00618 15914 ft 381 kts 88°
2026-05-07 19:07 36.19625 -114.97323 16677 ft 385 kts 88°
2026-05-07 19:07 36.19620 -114.93993 17395 ft 389 kts 88°
2026-05-07 19:08 36.19616 -114.90621 18106 ft 393 kts 88°
2026-05-07 19:08 36.19613 -114.87201 18746 ft 396 kts 88°
2026-05-07 19:08 36.19608 -114.83781 19420 ft 398 kts 88°
2026-05-07 19:08 36.19603 -114.80374 20046 ft 402 kts 88°
2026-05-07 19:09 36.19596 -114.76886 20652 ft 406 kts 88°
2026-05-07 19:09 36.19589 -114.73376 21249 ft 410 kts 88°
2026-05-07 19:09 36.19580 -114.69826 21858 ft 413 kts 88°
2026-05-07 19:09 36.19571 -114.66253 22429 ft 417 kts 87°
2026-05-07 19:10 36.19563 -114.62650 23004 ft 421 kts 87°
2026-05-07 19:10 36.19555 -114.59013 23560 ft 424 kts 87°
2026-05-07 19:10 36.19546 -114.55334 24032 ft 428 kts 87°
2026-05-07 19:10 36.19536 -114.51638 24532 ft 430 kts 87°
2026-05-07 19:11 36.19525 -114.47969 25019 ft 433 kts 87°
2026-05-07 19:11 36.19511 -114.44238 25536 ft 435 kts 87°
2026-05-07 19:11 36.19496 -114.40479 26014 ft 438 kts 87°
2026-05-07 19:11 36.19481 -114.36685 26458 ft 441 kts 87°
2026-05-07 19:12 36.19464 -114.32875 26871 ft 444 kts 87°
2026-05-07 19:12 36.19446 -114.29031 27335 ft 447 kts 87°
2026-05-07 19:12 36.19427 -114.25164 27766 ft 449 kts 87°
2026-05-07 19:12 36.19554 -114.21295 28173 ft 449 kts 81°
2026-05-07 19:13 36.19947 -114.17454 28590 ft 450 kts 78°
2026-05-07 19:13 36.20449 -114.13677 29011 ft 452 kts 77°
2026-05-07 19:13 36.20986 -114.09839 29388 ft 454 kts 77°
2026-05-07 19:13 36.21515 -114.05968 29790 ft 457 kts 77°
2026-05-07 19:14 36.22023 -114.02072 30136 ft 460 kts 78°
2026-05-07 19:14 36.22511 -113.98150 30540 ft 460 kts 78°
2026-05-07 19:14 36.22980 -113.94253 31063 ft 457 kts 78°
2026-05-07 19:14 36.23437 -113.90369 31612 ft 453 kts 78°
2026-05-07 19:15 36.23887 -113.86505 32104 ft 451 kts 78°
2026-05-07 19:15 36.24335 -113.82663 32540 ft 451 kts 78°
2026-05-07 19:15 36.24781 -113.78820 32944 ft 450 kts 78°
2026-05-07 19:15 36.25227 -113.74983 33375 ft 449 kts 78°
2026-05-07 19:16 36.25670 -113.71160 33803 ft 448 kts 78°
2026-05-07 19:16 36.26112 -113.67347 34161 ft 447 kts 78°
2026-05-07 19:16 36.26551 -113.63541 34526 ft 446 kts 78°
2026-05-07 19:16 36.26987 -113.59753 34905 ft 443 kts 78°
2026-05-07 19:17 36.27421 -113.55972 35253 ft 442 kts 78°
2026-05-07 19:17 36.27847 -113.52254 35568 ft 441 kts 78°
2026-05-07 19:17 36.28276 -113.48492 35904 ft 440 kts 78°
2026-05-07 19:17 36.28704 -113.44737 36218 ft 439 kts 78°
2026-05-07 19:18 36.29128 -113.40995 36538 ft 438 kts 78°
2026-05-07 19:18 36.29552 -113.37251 36819 ft 437 kts 79°
2026-05-07 19:18 36.29975 -113.33517 37094 ft 437 kts 79°
2026-05-07 19:18 36.30394 -113.29796 37410 ft 435 kts 79°
2026-05-07 19:19 36.30809 -113.26082 37773 ft 433 kts 79°
2026-05-07 19:19 36.31267 -113.22449 38053 ft 430 kts 73°
2026-05-07 19:19 36.32304 -113.19006 38258 ft 425 kts 63°
2026-05-07 19:19 36.33527 -113.15661 38454 ft 426 kts 63°
2026-05-07 19:20 36.34748 -113.12310 38641 ft 427 kts 63°
2026-05-07 19:20 36.35961 -113.08945 38851 ft 427 kts 64°
2026-05-07 19:20 36.37167 -113.05570 38965 ft 428 kts 64°
2026-05-07 19:20 36.38369 -113.02180 39012 ft 429 kts 64°
2026-05-07 19:21 36.40752 -112.95403 39032 ft 429 kts 64°
2026-05-07 19:21 36.43132 -112.88607 39047 ft 429 kts 64°
2026-05-07 19:22 36.45514 -112.81787 39045 ft 431 kts 64°
2026-05-07 19:22 36.47880 -112.75001 39041 ft 431 kts 64°
2026-05-07 19:23 36.50264 -112.68149 39055 ft 432 kts 64°
2026-05-07 19:23 36.52647 -112.61285 39058 ft 432 kts 64°
2026-05-07 19:24 36.55025 -112.54417 39058 ft 432 kts 64°
2026-05-07 19:24 36.57403 -112.47536 39057 ft 432 kts 64°
2026-05-07 19:25 36.59765 -112.40684 39058 ft 433 kts 64°
2026-05-07 19:25 36.62138 -112.33785 39062 ft 432 kts 64°
2026-05-07 19:26 36.64503 -112.26897 39070 ft 432 kts 64°
2026-05-07 19:26 36.66864 -112.20001 39079 ft 432 kts 64°
2026-05-07 19:27 36.69208 -112.13140 39068 ft 433 kts 64°
2026-05-07 19:27 36.71567 -112.06219 39052 ft 433 kts 64°
2026-05-07 19:28 36.73920 -111.99299 39050 ft 433 kts 65°
2026-05-07 19:28 36.76269 -111.92374 39050 ft 434 kts 65°
2026-05-07 19:29 36.78603 -111.85479 39048 ft 434 kts 65°
2026-05-07 19:29 36.80947 -111.78538 39047 ft 434 kts 65°
2026-05-07 19:30 36.83293 -111.71575 39041 ft 435 kts 65°
2026-05-07 19:30 36.85659 -111.64609 39039 ft 436 kts 62°
2026-05-07 19:31 36.88629 -111.58041 39026 ft 434 kts 56°
2026-05-07 19:31 36.90230 -111.54841 39167 ft 434 kts 56°
2026-05-07 19:31 36.91833 -111.51646 39163 ft 434 kts 56°
2026-05-07 19:32 36.94998 -111.45205 39165 ft 435 kts 57°
2026-05-07 19:32 36.98119 -111.38700 39162 ft 435 kts 57°
2026-05-07 19:33 37.01195 -111.32214 39151 ft 436 kts 57°
2026-05-07 19:33 37.04282 -111.25681 39115 ft 436 kts 57°
2026-05-07 19:34 37.07365 -111.19146 39079 ft 436 kts 57°
2026-05-07 19:34 37.09922 -111.13716 39071 ft 436 kts 57°
2026-05-07 19:35 37.13005 -111.07161 39037 ft 436 kts 57°
2026-05-07 19:35 37.16082 -111.00607 39033 ft 436 kts 57°
2026-05-07 19:36 37.19157 -110.94042 39035 ft 436 kts 57°
2026-05-07 19:36 37.22229 -110.87470 39031 ft 436 kts 57°
2026-05-07 19:37 37.25299 -110.80892 39038 ft 436 kts 57°
2026-05-07 19:37 37.28345 -110.74350 39041 ft 437 kts 57°
2026-05-07 19:38 37.31416 -110.67742 39039 ft 438 kts 57°
2026-05-07 19:38 37.34493 -110.61107 39037 ft 439 kts 57°
2026-05-07 19:39 37.37567 -110.54467 39034 ft 440 kts 57°
2026-05-07 19:39 37.40644 -110.47805 39039 ft 441 kts 57°
2026-05-07 19:40 37.43725 -110.41121 39048 ft 441 kts 57°
2026-05-07 19:40 37.46805 -110.34425 39042 ft 442 kts 57°
2026-05-07 19:41 37.49872 -110.27744 39055 ft 443 kts 57°
2026-05-07 19:41 37.52955 -110.21015 39052 ft 443 kts 57°
2026-05-07 19:42 37.56016 -110.14319 39058 ft 443 kts 57°
2026-05-07 19:42 37.59089 -110.07585 39064 ft 443 kts 57°
2026-05-07 19:43 37.62161 -110.00838 39071 ft 443 kts 57°
2026-05-07 19:43 37.65226 -109.94092 39076 ft 443 kts 57°
2026-05-07 19:44 37.68295 -109.87324 39071 ft 443 kts 57°
2026-05-07 19:44 37.71356 -109.80558 39075 ft 443 kts 57°
2026-05-07 19:45 37.74393 -109.73832 39087 ft 443 kts 57°
2026-05-07 19:45 37.77448 -109.67052 39142 ft 442 kts 57°
2026-05-07 19:46 37.80490 -109.60286 39130 ft 443 kts 57°
2026-05-07 19:46 37.83532 -109.53505 39127 ft 443 kts 57°
2026-05-07 19:47 37.86550 -109.46766 39122 ft 443 kts 57°
2026-05-07 19:47 37.89594 -109.39953 39112 ft 445 kts 57°
2026-05-07 19:48 37.92642 -109.33118 39085 ft 446 kts 57°
2026-05-07 19:48 37.95698 -109.26249 39080 ft 447 kts 57°
2026-05-07 19:49 37.98749 -109.19376 39084 ft 447 kts 57°
2026-05-07 19:49 38.01781 -109.12532 39082 ft 448 kts 57°
2026-05-07 19:50 38.04830 -109.05635 39093 ft 449 kts 57°
2026-05-07 19:50 38.07886 -108.98705 39090 ft 450 kts 57°
2026-05-07 19:51 38.10922 -108.91749 39078 ft 451 kts 58°
2026-05-07 19:51 38.13751 -108.84608 39085 ft 452 kts 60°
2026-05-07 19:52 38.16520 -108.77419 39098 ft 452 kts 60°
2026-05-07 19:52 38.19289 -108.70286 39099 ft 453 kts 60°
2026-05-07 19:53 38.22095 -108.63103 39092 ft 453 kts 60°
2026-05-07 19:53 38.24904 -108.55908 39107 ft 453 kts 60°
2026-05-07 19:54 38.27709 -108.48710 39096 ft 453 kts 60°
2026-05-07 19:54 38.30507 -108.41507 39123 ft 453 kts 60°
2026-05-07 19:55 38.33284 -108.34342 39114 ft 454 kts 60°
2026-05-07 19:55 38.36080 -108.27112 39120 ft 456 kts 59°
2026-05-07 19:56 38.38876 -108.19863 39146 ft 454 kts 59°
2026-05-07 19:56 38.41649 -108.12654 39168 ft 453 kts 59°
2026-05-07 19:57 38.44421 -108.05436 39195 ft 453 kts 59°
2026-05-07 19:57 38.47192 -107.98189 39210 ft 454 kts 60°
2026-05-07 19:58 38.49938 -107.90926 39216 ft 454 kts 60°
2026-05-07 19:58 38.52663 -107.83692 39215 ft 455 kts 60°
2026-05-07 19:59 38.54039 -107.80039 39100 ft 455 kts 60°
2026-05-07 19:59 38.55410 -107.76392 39102 ft 455 kts 60°
2026-05-07 19:59 38.58149 -107.69098 39105 ft 456 kts 60°
2026-05-07 20:00 38.60891 -107.61777 39105 ft 457 kts 60°
2026-05-07 20:00 38.63638 -107.54429 39116 ft 457 kts 60°
2026-05-07 20:01 38.66370 -107.47117 39117 ft 458 kts 60°
2026-05-07 20:01 38.69156 -107.39762 39059 ft 456 kts 60°
2026-05-07 20:02 38.71929 -107.32454 39133 ft 459 kts 60°
2026-05-07 20:02 38.74730 -107.25032 39120 ft 462 kts 59°
2026-05-07 20:03 38.77512 -107.17645 39114 ft 462 kts 59°
2026-05-07 20:03 38.80296 -107.10229 39104 ft 460 kts 59°
2026-05-07 20:04 38.83057 -107.02853 39120 ft 458 kts 59°
2026-05-07 20:04 38.85813 -106.95479 39127 ft 458 kts 59°
2026-05-07 20:05 38.88359 -106.88649 39131 ft 465 kts 59°
2026-05-07 20:05 38.91026 -106.81477 39136 ft 470 kts 59°
2026-05-07 20:06 38.93834 -106.73895 39114 ft 467 kts 60°
2026-05-07 20:06 38.96603 -106.66406 38896 ft 466 kts 59°
2026-05-07 20:07 38.97998 -106.62633 38211 ft 466 kts 59°
2026-05-07 20:07 38.99382 -106.58881 37565 ft 464 kts 59°
2026-05-07 20:07 39.00758 -106.55138 36895 ft 462 kts 59°
2026-05-07 20:07 39.02121 -106.51416 36208 ft 459 kts 59°
2026-05-07 20:08 39.03478 -106.47702 35465 ft 460 kts 59°
2026-05-07 20:08 39.04847 -106.43960 34675 ft 462 kts 59°
2026-05-07 20:08 39.06220 -106.40203 33786 ft 466 kts 59°
2026-05-07 20:08 39.07603 -106.36412 32845 ft 468 kts 59°
2026-05-07 20:09 39.08989 -106.32604 31945 ft 470 kts 59°
2026-05-07 20:09 39.10376 -106.28787 31007 ft 473 kts 60°
2026-05-07 20:09 39.11776 -106.24930 29961 ft 477 kts 60°
2026-05-07 20:10 39.14507 -106.17374 29283 ft 449 kts 60°
2026-05-07 20:10 39.15791 -106.13818 28794 ft 441 kts 60°
2026-05-07 20:10 39.17078 -106.10248 28226 ft 436 kts 60°
2026-05-07 20:10 39.18351 -106.06710 27622 ft 434 kts 60°
2026-05-07 20:11 39.19616 -106.03192 27037 ft 431 kts 60°
2026-05-07 20:11 39.20873 -105.99687 26459 ft 429 kts 60°
2026-05-07 20:11 39.22125 -105.96196 25886 ft 428 kts 60°
2026-05-07 20:11 39.23374 -105.92709 25264 ft 428 kts 60°
2026-05-07 20:12 39.24619 -105.89235 24780 ft 425 kts 60°
2026-05-07 20:12 39.25861 -105.85786 24339 ft 422 kts 60°
2026-05-07 20:12 39.27093 -105.82370 23892 ft 419 kts 60°
2026-05-07 20:12 39.28323 -105.78957 23415 ft 417 kts 60°
2026-05-07 20:13 39.29540 -105.75572 22936 ft 414 kts 60°
2026-05-07 20:13 39.30747 -105.72211 22489 ft 411 kts 61°
2026-05-07 20:13 39.31942 -105.68878 22068 ft 407 kts 61°
2026-05-07 20:13 39.33123 -105.65591 21649 ft 400 kts 60°
2026-05-07 20:14 39.34296 -105.62374 21240 ft 393 kts 60°
2026-05-07 20:14 39.35457 -105.59202 20827 ft 388 kts 60°
2026-05-07 20:14 39.36600 -105.56076 20433 ft 382 kts 60°
2026-05-07 20:14 39.37725 -105.52996 20052 ft 376 kts 60°
2026-05-07 20:15 39.38830 -105.49970 19792 ft 370 kts 60°
2026-05-07 20:15 39.39908 -105.47006 19411 ft 368 kts 61°
2026-05-07 20:15 39.40997 -105.44007 18922 ft 368 kts 62°
2026-05-07 20:15 39.41739 -105.40841 18479 ft 372 kts 82°
2026-05-07 20:16 39.41810 -105.37529 18098 ft 363 kts 87°
2026-05-07 20:16 39.41804 -105.34299 17661 ft 354 kts 88°
2026-05-07 20:16 39.41791 -105.31149 17275 ft 348 kts 88°
2026-05-07 20:16 39.41785 -105.28041 16911 ft 345 kts 88°
2026-05-07 20:17 39.41788 -105.24945 16537 ft 341 kts 88°
2026-05-07 20:17 39.41795 -105.21903 16202 ft 338 kts 88°
2026-05-07 20:17 39.41806 -105.18865 15825 ft 336 kts 88°
2026-05-07 20:17 39.41819 -105.15845 15469 ft 335 kts 88°
2026-05-07 20:18 39.41831 -105.12862 15145 ft 332 kts 88°
2026-05-07 20:18 39.41843 -105.09878 14803 ft 331 kts 88°
2026-05-07 20:18 39.41855 -105.06946 14453 ft 329 kts 88°
2026-05-07 20:18 39.41866 -105.03979 14114 ft 328 kts 88°
2026-05-07 20:19 39.41876 -105.01042 13770 ft 326 kts 88°
2026-05-07 20:19 39.41882 -104.99096 13567 ft 325 kts 88°
2026-05-07 20:19 39.41890 -104.96181 13202 ft 323 kts 88°
2026-05-07 20:19 39.41937 -104.93282 12865 ft 318 kts 84°
2026-05-07 20:20 39.42167 -104.90501 12562 ft 309 kts 81°
2026-05-07 20:20 39.42437 -104.87771 12267 ft 302 kts 81°
2026-05-07 20:20 39.42697 -104.85114 11971 ft 293 kts 81°
2026-05-07 20:20 39.42936 -104.82552 11720 ft 279 kts 81°
2026-05-07 20:21 39.43154 -104.80124 11423 ft 265 kts 81°
2026-05-07 20:21 39.43358 -104.77809 11166 ft 253 kts 81°
2026-05-07 20:21 39.43623 -104.75632 11048 ft 237 kts 69°
2026-05-07 20:21 39.44225 -104.73713 11037 ft 227 kts 63°
2026-05-07 20:22 39.44842 -104.71832 11026 ft 227 kts 64°
2026-05-07 20:22 39.45538 -104.69928 11054 ft 252 kts 51°
2026-05-07 20:22 39.46891 -104.68563 11036 ft 246 kts 14°
2026-05-07 20:22 39.48557 -104.68006 11038 ft 249 kts
2026-05-07 20:23 39.50237 -104.67472 11030 ft 248 kts
2026-05-07 20:23 39.51906 -104.66919 11030 ft 247 kts 10°
2026-05-07 20:23 39.53571 -104.66385 11008 ft 245 kts
2026-05-07 20:23 39.55278 -104.66275 10687 ft 246 kts 354°
2026-05-07 20:24 39.56992 -104.66309 10378 ft 245 kts 354°
2026-05-07 20:24 39.58685 -104.66318 10026 ft 240 kts 355°
2026-05-07 20:24 39.60330 -104.66314 9757 ft 232 kts 354°
2026-05-07 20:24 39.61918 -104.66302 9471 ft 224 kts 355°
2026-05-07 20:25 39.63460 -104.66286 9181 ft 219 kts 355°
2026-05-07 20:25 39.64966 -104.66268 8883 ft 213 kts 355°
2026-05-07 20:25 39.66408 -104.66251 8626 ft 207 kts 355°
2026-05-07 20:25 39.67828 -104.66233 8358 ft 200 kts 355°
2026-05-07 20:26 39.69197 -104.66216 8091 ft 194 kts 354°
2026-05-07 20:26 39.70503 -104.66201 7837 ft 180 kts 354°
2026-05-07 20:26 39.71716 -104.66184 7607 ft 166 kts 353°
2026-05-07 20:26 39.72805 -104.66170 7432 ft 147 kts 353°
2026-05-07 20:27 39.73820 -104.66161 7258 ft 145 kts 352°
2026-05-07 20:27 39.74814 -104.66149 7054 ft 141 kts 352°
2026-05-07 20:27 39.75824 -104.66140 6894 ft 150 kts 353°
2026-05-07 20:27 39.76874 -104.66126 6673 ft 150 kts 353°
2026-05-07 20:28 39.77901 -104.66114 6505 ft 146 kts 353°
2026-05-07 20:28 39.78891 -104.66077 6297 ft 141 kts 352°
2026-05-07 20:28 39.79890 -104.66065 6120 ft 144 kts 350°
2026-05-07 20:28 39.80908 -104.66105 5925 ft 147 kts 348°
2026-05-07 20:29 39.81929 -104.66063 5645 ft 148 kts 353°
2026-05-07 20:29 39.82953 -104.66059 5415 ft 150 kts 357°
2026-05-07 20:29 39.83948 -104.66126 5365 ft 129 kts 347°
2026-05-07 20:29 39.84733 -104.66091 5374 ft 99 kts 12°
2026-05-07 20:30 39.85175 -104.66078 5377 ft 38 kts 335°